• In Russia
  • List of Countries
  • For 7 days
  • Water Temperature
  • Satellite Maps
  • Weather Map
  • Weather Widgets
  • user-avatar
    Login

    Hourly Weather El Guna

    Today, 14 December, Friday

    Time Temperature Precipitation Wind Pressure Humidity
    00:00 +15°C° 0 mm 2 mps 738 mmHg 57%
    01:00 +15°C° 0 mm 2 mps 738 mmHg 58%
    02:00 +14°C° 0 mm 3 mps 738 mmHg 57%
    03:00 +13°C° 0 mm 3 mps 738 mmHg 58%
    04:00 +13°C° 0 mm 3 mps 738 mmHg 59%
    05:00 +14°C° 0 mm 2 mps 738 mmHg 60%
    06:00 +15°C° 0 mm 2 mps 738 mmHg 56%
    07:00 +16°C° 0 mm 2 mps 739 mmHg 52%
    08:00 +17°C° 0 mm 2 mps 739 mmHg 48%
    09:00 +18°C° 0 mm 3 mps 739 mmHg 43%
    10:00 +20°C° 0 mm 3 mps 739 mmHg 38%
    11:00 +21°C° 0 mm 3 mps 739 mmHg 33%
    12:00 +22°C° 0 mm 3 mps 738 mmHg 31%
    13:00 +24°C° 0 mm 3 mps 738 mmHg 28%
    14:00 +24°C° 0 mm 3 mps 738 mmHg 26%
    15:00 +22°C° 0 mm 3 mps 738 mmHg 30%
    16:00 +21°C° 0 mm 3 mps 737 mmHg 33%
    17:00 +20°C° 0 mm 3 mps 737 mmHg 37%
    18:00 +19°C° 0 mm 3 mps 737 mmHg 40%
    19:00 +18°C° 0 mm 3 mps 737 mmHg 44%
    20:00 +18°C° 0 mm 3 mps 737 mmHg 48%
    21:00 +17°C° 0 mm 2 mps 737 mmHg 47%
    22:00 +17°C° 0 mm 2 mps 737 mmHg 47%
    23:00 +16°C° 0 mm 2 mps 737 mmHg 46%

    Tomorrow, 15 December, Saturday

    Time Temperature Precipitation Wind Pressure Humidity
    00:00 +16°C° 0 mm 2 mps 737 mmHg 44%
    01:00 +15°C° 0 mm 2 mps 737 mmHg 43%
    02:00 +15°C° 0 mm 2 mps 737 mmHg 41%
    03:00 +15°C° 0 mm 2 mps 737 mmHg 40%
    04:00 +14°C° 0 mm 2 mps 736 mmHg 39%
    05:00 +14°C° 0 mm 2 mps 736 mmHg 39%
    06:00 +15°C° 0 mm 2 mps 737 mmHg 35%
    07:00 +17°C° 0 mm 2 mps 737 mmHg 32%
    08:00 +19°C° 0 mm 1 mps 737 mmHg 28%
    09:00 +21°C° 0 mm 1 mps 737 mmHg 26%
    10:00 +22°C° 0 mm 1 mps 737 mmHg 24%
    11:00 +24°C° 0 mm 1 mps 737 mmHg 22%
    12:00 +25°C° 0 mm 1 mps 736 mmHg 21%
    13:00 +25°C° 0 mm 1 mps 736 mmHg 20%
    14:00 +26°C° 0 mm 2 mps 735 mmHg 18%
    15:00 +24°C° 0 mm 1 mps 735 mmHg 22%
    16:00 +23°C° 0 mm 1 mps 735 mmHg 26%
    17:00 +21°C° 0 mm 1 mps 735 mmHg 31%
    18:00 +20°C° 0 mm 1 mps 735 mmHg 34%
    19:00 +19°C° 0 mm 1 mps 735 mmHg 37%
    20:00 +18°C° 0 mm 1 mps 735 mmHg 40%
    21:00 +18°C° 0 mm 1 mps 735 mmHg 40%
    22:00 +18°C° 0 mm 1 mps 735 mmHg 39%
    23:00 +16°C° 0 mm 1 mps 735 mmHg 39%

    Day after tomorrow, 16 December, Sunday

    Time Temperature Precipitation Wind Pressure Humidity
    00:00 +16°C° 0 mm 1 mps 735 mmHg 37%
    01:00 +16°C° 0 mm 1 mps 735 mmHg 36%
    02:00 +15°C° 0 mm 1 mps 734 mmHg 34%
    03:00 +15°C° 0 mm 1 mps 734 mmHg 33%
    04:00 +15°C° 0 mm 1 mps 734 mmHg 32%
    05:00 +14°C° 0 mm 1 mps 734 mmHg 31%
    06:00 +16°C° 0 mm 1 mps 734 mmHg 28%
    07:00 +18°C° 0 mm 1 mps 735 mmHg 24%
    08:00 +20°C° 0 mm 1 mps 735 mmHg 21%
    09:00 +20°C° 0 mm 2 mps 735 mmHg 19%
    10:00 +23°C° 0 mm 2 mps 736 mmHg 17%
    11:00 +24°C° 0 mm 2 mps 736 mmHg 15%
    12:00 +25°C° 0 mm 2 mps 735 mmHg 14%
    13:00 +25°C° 0 mm 3 mps 735 mmHg 13%
    14:00 +26°C° 0 mm 3 mps 734 mmHg 12%
    15:00 +24°C° 0 mm 3 mps 734 mmHg 15%
    16:00 +22°C° 0 mm 3 mps 734 mmHg 17%
    17:00 +20°C° 0 mm 2 mps 734 mmHg 20%
    18:00 +20°C° 0 mm 2 mps 735 mmHg 21%
    19:00 +19°C° 0 mm 2 mps 735 mmHg 21%
    20:00 +19°C° 0 mm 2 mps 735 mmHg 22%
    21:00 +18°C° 0 mm 3 mps 735 mmHg 22%
    22:00 +18°C° 0 mm 3 mps 735 mmHg 23%
    23:00 +17°C° 0 mm 3 mps 736 mmHg 23%

    17 December, Monday

    Time Temperature Precipitation Wind Pressure Humidity
    00:00 +17°C° 0 mm 3 mps 735 mmHg 24%
    01:00 +16°C° 0 mm 3 mps 735 mmHg 25%
    02:00 +16°C° 0 mm 3 mps 735 mmHg 26%
    03:00 +16°C° 0 mm 3 mps 735 mmHg 28%
    04:00 +14°C° 0 mm 4 mps 735 mmHg 29%
    05:00 +14°C° 0 mm 4 mps 735 mmHg 31%
    06:00 +14°C° 0 mm 4 mps 735 mmHg 31%
    07:00 +15°C° 0 mm 4 mps 736 mmHg 30%
    08:00 +15°C° 0 mm 4 mps 736 mmHg 30%
    09:00 +16°C° 0 mm 5 mps 736 mmHg 30%
    10:00 +17°C° 0 mm 5 mps 736 mmHg 31%
    11:00 +20°C° 0 mm 5 mps 736 mmHg 31%
    12:00 +20°C° 0 mm 6 mps 736 mmHg 32%
    13:00 +20°C° 0 mm 6 mps 736 mmHg 34%
    14:00 +21°C° 0 mm 6 mps 735 mmHg 35%
    15:00 +20°C° 0 mm 6 mps 736 mmHg 39%
    16:00 +19°C° 0 mm 6 mps 736 mmHg 43%
    17:00 +17°C° 0 mm 5 mps 736 mmHg 47%
    18:00 +16°C° 0 mm 5 mps 736 mmHg 50%
    19:00 +16°C° 0 mm 5 mps 737 mmHg 52%
    20:00 +15°C° 0 mm 4 mps 737 mmHg 55%
    21:00 +14°C° 0 mm 4 mps 738 mmHg 57%
    22:00 +14°C° 0 mm 4 mps 738 mmHg 60%
    23:00 +14°C° 0 mm 4 mps 738 mmHg 62%

    18 December, Tuesday

    Time Temperature Precipitation Wind Pressure Humidity
    00:00 +13°C° 0 mm 4 mps 738 mmHg 63%
    01:00 +13°C° 0 mm 4 mps 738 mmHg 64%
    02:00 +12°C° 0 mm 3 mps 738 mmHg 65%
    03:00 +12°C° 0 mm 3 mps 738 mmHg 65%
    04:00 +12°C° 0 mm 3 mps 738 mmHg 65%
    05:00 +11°C° 0 mm 3 mps 738 mmHg 66%
    06:00 +12°C° 0 mm 3 mps 739 mmHg 61%
    07:00 +14°C° 0 mm 2 mps 739 mmHg 57%
    08:00 +15°C° 0 mm 2 mps 739 mmHg 52%
    09:00 +16°C° 0 mm 2 mps 739 mmHg 47%
    10:00 +18°C° 0 mm 2 mps 739 mmHg 42%
    11:00 +19°C° 0 mm 2 mps 739 mmHg 37%
    12:00 +20°C° 0 mm 2 mps 739 mmHg 35%
    13:00 +20°C° 0 mm 2 mps 738 mmHg 33%
    14:00 +21°C° 0 mm 2 mps 738 mmHg 31%
    15:00 +20°C° 0 mm 2 mps 738 mmHg 35%
    16:00 +20°C° 0 mm 2 mps 738 mmHg 38%
    17:00 +19°C° 0 mm 2 mps 738 mmHg 41%
    18:00 +18°C° 0 mm 2 mps 738 mmHg 46%
    19:00 +17°C° 0 mm 2 mps 739 mmHg 51%
    20:00 +17°C° 0 mm 2 mps 739 mmHg 55%
    21:00 +16°C° 0 mm 2 mps 739 mmHg 58%
    22:00 +16°C° 0 mm 2 mps 739 mmHg 60%
    23:00 +15°C° 0 mm 2 mps 739 mmHg 62%

    19 December, Wednesday

    Time Temperature Precipitation Wind Pressure Humidity
    00:00 +15°C° 0 mm 2 mps 738 mmHg 63%
    01:00 +14°C° 0 mm 2 mps 738 mmHg 63%
    02:00 +13°C° 0 mm 3 mps 738 mmHg 64%
    03:00 +14°C° 0 mm 2 mps 738 mmHg 66%
    04:00 +13°C° 0 mm 2 mps 737 mmHg 67%
    05:00 +13°C° 0 mm 2 mps 737 mmHg 68%
    06:00 +14°C° 0 mm 2 mps 738 mmHg 64%
    07:00 +15°C° 0 mm 2 mps 738 mmHg 59%
    08:00 +16°C° 0 mm 2 mps 738 mmHg 54%
    09:00 +18°C° 0 mm 2 mps 738 mmHg 48%
    10:00 +19°C° 0 mm 2 mps 738 mmHg 41%
    11:00 +21°C° 0 mm 2 mps 738 mmHg 35%
    12:00 +23°C° 0 mm 2 mps 737 mmHg 32%
    13:00 +23°C° 0 mm 2 mps 737 mmHg 29%
    14:00 +24°C° 0 mm 2 mps 736 mmHg 26%
    15:00 +23°C° 0 mm 2 mps 736 mmHg 29%
    16:00 +21°C° 0 mm 2 mps 736 mmHg 33%
    17:00 +20°C° 0 mm 3 mps 736 mmHg 36%
    18:00 +19°C° 0 mm 3 mps 736 mmHg 40%
    19:00 +18°C° 0 mm 3 mps 736 mmHg 44%
    20:00 +18°C° 0 mm 3 mps 737 mmHg 48%
    21:00 +17°C° 0 mm 3 mps 737 mmHg 50%
    22:00 +17°C° 0 mm 3 mps 736 mmHg 51%
    23:00 +16°C° 0 mm 3 mps 736 mmHg 53%
    Show more